Location: Newark
(16.3678°N, 77.8722°E)
Time: 09:59:02
(UTC+00:00)

S-56A Canister/Altair - Pass Details

Date: 10 December 2019
Orbit: 634 x 2498 km, 38.9° (Epoch: 18 January)

Event Time Altitude Azimuth Distance (km) Brightness Sun altitude
Rises 08:09:06 0° 300° (WNW) 6,157 12.1 45.2°
Reaches altitude 10° 08:14:16 10° 311° (NW) 5,155 11.8 44.6°
Maximum altitude 08:26:07 27° 4° (N) 3,646 10.8 43.1°
Drops below altitude 10° 08:36:07 10° 58° (ENE) 4,336 11.0 41.7°
Sets 08:39:59 0° 70° (ENE) 5,054 11.3 41.1°
